Back to catalog

HULIANWANG DIGUI-73

AliveCommunicationsLEO
NORAD 65305·PAYLOAD·🇨🇳 China

Launched Aug 25, 2025 from Wenchang Space Launch Site

Loading…

Next Passes (next 24 hours)

TLE

FreshSource: Space-Track

Epoch: Sep 14, 2026, 12:37 UTC

1 65305U 25187A   26257.52580325 -.00000093  00000-0  67916-4 0  9990
2 65305  50.0037 245.4739 0000660 335.8423  24.2418 13.29326314 51584

Track HULIANWANG DIGUI-73 in real time with AllMySat

Download on the App Store